Location: Burbank
(38.7788°N, 114.0429°W)
Time: 17:49:07
(UTC+00:00)

Injun/Solrad 3 - Pass Details

Date: 14 May 2026
Orbit: 867 x 989 km, 66.8° (Epoch: 9 June)

Event Time Altitude Azimuth Distance (km) Brightness Sun altitude
Rises 07:04:59 0° 340° (NNW) 3,678 12.1 -32.2°
Reaches altitude 10° 07:08:04 10° 353° (N) 2,740 11.2 -32.3°
Maximum altitude 07:13:16 25° 48° (NE) 1,868 9.7 -32.4°
Enters shadow 07:15:48 20° 80° (E) 2,107 9.7 -32.4°
Drops below altitude 10° 07:18:29 10° 102° (ESE) 2,744 - -32.5°
Sets 07:21:33 0° 115° (ESE) 3,685 - -32.5°
